This demonstration page uses our WeatherBlox Daily Observations layout. Learn more.

Left ArrowRight Arrow

41.86663, -103.66717

Hourly Observations for April 30, 2018

Temp ( °F °C ) Dew Point ( °F °C ) Humidity (%) Winds ( mph kmh ) Pressure ( in mb ) Visibility ( mi km ) Precip ( " mm )
12:53 am 00:53 Mostly Clear 62 16.7 38 3.3 41 41 W 18 30 29.49 999 10 16 N/A
1:53 am 01:53 Clear 53 11.7 43 6.1 69 69 N 13 20 29.52 1000 10 16 N/A
2:53 am 02:53 Clear 50 10 43 6.1 77 77 W 7 11 29.57 1001 10 16 N/A
3:53 am 03:53 Clear 47 8.3 42 5.6 83 83 undefined N/A 29.59 1002 10 16 N/A
4:53 am 04:53 Clear 45 7.2 41 5 86 86 WNW 9 15 29.59 1002 10 16 N/A
5:53 am 05:53 Sunny 43 6.1 41 5 93 93 WNW 6 9 29.61 1003 10 16 N/A
6:53 am 06:53 Sunny 46 7.8 42 5.6 86 86 WNW 10 17 29.63 1003 10 16 N/A
7:53 am 07:53 Sunny 49 9.4 43 6.1 80 80 WNW 12 19 29.64 1004 10 16 N/A
8:53 am 08:53 Sunny 54 12.2 44 6.7 69 69 NW 10 17 29.62 1003 10 16 N/A
9:53 am 09:53 Sunny 59 15 46 7.8 62 62 NNW 12 19 29.59 1002 10 16 N/A
10:53 am 10:53 Sunny 61 16.1 45 7.2 56 56 N 15 24 29.60 1002 10 16 N/A
11:53 am 11:53 Cloudy 61 16.1 45 7.2 56 56 N 17 28 29.62 1003 10 16 N/A
12:53 pm 12:53 Mostly Cloudy 63 17.2 46 7.8 54 54 NNE 13 20 29.61 1003 10 16 N/A
1:53 pm 13:53 Sunny 66 18.9 47 8.3 50 50 NE 20 31 29.60 1003 10 16 N/A
2:53 pm 14:53 Sunny 65 18.3 47 8.3 52 52 NE 20 31 29.61 1003 10 16 N/A
3:53 pm 15:53 Sunny 63 17.2 46 7.8 54 54 ENE 14 22 29.62 1003 10 16 N/A
4:53 pm 16:53 Sunny 63 17.2 46 7.8 54 54 ENE 12 19 29.66 1004 10 16 N/A
5:53 pm 17:53 Sunny 61 16.1 46 7.8 58 58 ENE 13 20 29.67 1005 10 16 N/A
6:53 pm 18:53 Sunny 59 15 46 7.8 62 62 NE 17 28 29.63 1004 10 16 N/A
7:53 pm 19:53 Clear 57 13.9 46 7.8 67 67 NE 12 19 29.67 1005 10 16 N/A
8:53 pm 20:53 Mostly Clear 53 11.7 48 8.9 83 83 N 9 15 29.73 1007 10 16 N/A
9:18 pm 21:18 Mostly Cloudy with Light Rain 52 11 45 7 77 77 NW 23 37 29.77 1008 10 16 N/A
9:41 pm 21:41 Cloudy with Light Rain 49 9.4 46 7.8 90 90 N 21 33 29.80 1009 10 16 N/A
9:53 pm 21:53 Cloudy with Light Rain 49 9.4 46 7.8 90 90 N 20 31 29.77 1008 10 16 N/A
10:53 pm 22:53 Cloudy with Light Rain 49 9.4 46 7.8 90 90 NNE 13 20 29.79 1009 7 11 0.03 0.76
11:53 pm 23:53 Clear 48 8.9 48 8.9 100 100 ESE 12 19 29.74 1007 10 16 0.02 0.51

Powered by AerisWeather